SCP
0 0 0 0 0 0 0 0 0 0 0 0 0 0 0 0 0 0 0 0 0 0 0 0 0 0 0 0 0 0 0 0 0 0 0 0 0 0
0 0 0 0 0 0 0 0 0 0 0 0 0 0 0 0 0 0 0 0 0 0 0 0 0 0 0 0 0 0 0 0 0 0 0 0 0 0
1 1 0 0 0 0 0 0 0 0 0 0 0 0 0 0 0 0 0 0 0 0 0 0 0 0 0 0 0 0 0 0 0 0 0 0 0 0
1 1 1 1 1 0 0 0 0 0 0 0 0 0 0 0 0 0 0 0 0 0 0 0 0 0 0 0 0 0 0 0 0 0 0 0 0 0
1 1 1 1 1 1 0 0 0 0 0 0 0 0 0 0 0 0 0 0 0 0 0 0 0 0 0 0 0 0 0 0 0 0 0 0 0 0
1 1 1 1 1 0 0 0 0 0 0 0 0 0 0 0 0 0 0 0 0 0 0 0 0 0 0 0 0 0 0 0 0 0 0 0 0 0
1 1 1 0 0 0 0 0 0 0 0 0 0 0 0 0 0 0 0 0 0 0 0 0 0 0 0 0 0 0 0 0 0 0 0 0 0 0
1 1 0 0 0 0 0 0 0 0 0 0 0 0 0 0 0 0 0 0 0 0 0 0 0 0 0 0 0 0 0 0 0 0 0 0 0 0
1 1 0 0 0 0 0 0 0 0 0 0 0 0 0 0 0 0 0 0 0 0 0 0 0 0 0 0 0 0 0 0 0 0 0 0 0 0
1 1 0 0 0 0 0 0 0 0 0 0 0 0 0 0 0 0 0 0 0 0 0 0 0 0 0 0 0 0 0 0 0 0 0 0 0 0
0 0 0 0 0 0 0 0 0 0 0 0 0 0 0 0 0 0 0 0 0 0 0 0 0 0 0 0 0 0 0 0 0 0 0 0 0 0
0 0 0 0 0 0 0 0 0 0 0 0 0 0 0 0 0 0 0 0 0 0 0 0 0 0 0 0 0 0 0 0 0 0 0 0 0 0
0 0 0 0 0 0 0 0 0 0 0 0 0 0 0 0 0 0 0 0 0 0 0 0 0 0 0 0 0 0 0 0 0 0 0 0 0 0
0 0 0 0 0 0 0 0 0 0 0 0 0 0 0 0 0 0 0 0 0 0 0 0 0 0 0 0 0 0 0 0 0 0 0 0 0 0
0 0 0 0 0 0 0 0 0 0 0 0 0 0 0 0 0 0 0 0 0 0 0 0 0 0 0 0 0 0 0 0 0 0 0 0 0 0
0 0 0 0 0 0 0 0 0 0 0 0 0 0 0 0 0 0 0 0 0 0 0 0 0 0 0 0 0 0 0 0 0 0 0 0 0 0
0 0 0 0 0 0 0 0 0 0 0 0 0 0 0 0 0 0 0 0 0 0 0 0 0 0 0 0 0 0 0 0 0 0 0 0 0 0
0 0 0 0 0 0 0 0 0 0 0 0 0 0 0 0 0 0 0 0 0 0 0 0 0 0 0 0 0 0 0 0 0 0 0 0 0 0
0 0 0 0 0 0 0 0 0 0 0 0 0 0 0 0 0 0 0 0 0 0 0 0 0 0 0 0 0 0 0 0 0 0 0 0 0 0
0 0 0 0 0 0 0 0 0 0 0 0 0 0 0 0 0 0 0 0 0 0 0 0 0 0 0 0 0 0 0 0 0 0 0 0 0 0
0 0 0 0 0 0 0 0 0 0 0 0 0 0 0 0 0 0 0 0 0 0 0 0 0 0 0 0 0 0 0 0 0 0 0 0 0 0
0 0 0 0 0 0 0 0 0 0 0 0 0 0 0 0 0 0 0 0 0 0 0 0 0 0 0 0 0 0 0 0 0 0 0 0 0 0
0 0 0 0 0 0 0 0 0 0 0 0 0 0 0 0 0 0 0 0 0 0 0 0 0 0 0 0 0 0 0 0 0 0 0 0 0 0
Wind_Speed
6 7 6 4 4 4 3 4 5 4 3 3 3 3 3 3 3 5 5 8 10 9 9 9 9 9 9 9 9 8 8 8 8 8 9 9 10 10
5 5 6 5 4 4 4 4 4 5 4 2 2 2 2 3 4 5 4 7 9 9 9 9 10 10 9 9 9 9 9 9 10 10 10 10 9 10
6 6 7 6 4 4 4 5 4 4 5 4 2 1 2 4 2 4 5 6 6 10 10 9 10 10 9 9 9 10 10 10 10 10 10 10 10 10
7 6 7 5 6 5 4 5 4 4 5 5 4 3 3 4 4 5 5 5 5 8 11 10 10 9 9 9 9 9 9 9 9 9 10 10 10 10
6 6 6 6 6 5 5 5 4 4 5 5 5 2 3 3 4 5 5 4 6 6 10 10 9 9 9 9 8 8 8 8 8 8 8 9 9 9
5 5 5 5 5 5 5 5 4 4 5 5 4 4 3 3 3 4 4 4 4 4 3 5 7 9 9 8 8 8 8 8 8 8 8 8 8 9
5 5 5 3 2 3 3 3 4 4 4 5 4 4 3 2 3 4 4 3 3 3 3 4 5 5 6 8 8 7 7 7 7 7 7 8 8 9
5 5 4 5 4 3 2 1 2 4 4 4 4 3 3 3 3 4 4 4 4 2 3 4 3 3 3 3 4 6 6 6 6 6 7 7 8 8
3 3 3 2 3 3 4 4 2 1 3 4 4 4 3 3 3 4 4 5 5 3 3 5 3 3 3 0 5 5 4 4 4 5 5 6 6 7
1 1 1 1 1 1 2 2 1 1 1 2 2 3 3 4 3 4 4 5 5 3 2 4 3 3 3 1 5 5 5 4 4 3 4 4 5 6
1 1 1 1 3 2 1 1 1 0 2 3 3 2 4 5 5 4 4 4 4 2 1 3 4 4 3 2 3 5 4 4 4 3 3 4 5 7
2 3 4 4 4 2 2 1 1 0 1 2 1 0 1 1 1 3 4 4 4 2 1 3 4 4 4 2 1 2 2 3 4 4 4 4 4 5
2 2 4 7 6 4 3 2 2 1 1 1 1 1 1 1 1 1 3 3 4 3 3 3 4 4 4 4 2 2 2 2 2 2 4 4 4 5
3 3 5 8 7 5 4 4 3 1 1 1 1 2 2 2 2 3 3 3 3 3 4 5 4 5 5 5 4 3 3 3 3 3 3 3 5 7
5 8 8 7 6 6 5 4 2 1 2 1 2 2 2 3 2 2 2 1 1 2 3 4 4 4 5 5 5 4 4 3 3 4 4 4 4 4
5 8 8 7 5 5 4 3 3 3 3 2 2 2 2 2 2 2 2 2 2 2 2 3 4 5 5 5 5 5 5 5 5 5 5 6 5 5
4 5 4 4 4 4 3 3 3 2 2 3 3 3 3 2 2 3 3 3 3 3 3 3 3 3 4 5 5 4 5 5 5 5 6 7 6 5
4 5 4 4 4 4 3 3 3 3 3 3 3 3 3 3 3 3 3 3 3 4 4 4 5 4 4 2 2 5 5 5 6 6 7 7 7 6
4 5 4 4 4 4 4 4 4 4 3 4 4 4 4 4 4 4 4 4 4 4 4 5 5 6 7 6 3 3 6 6 7 7 7 7 8 7
5 5 4 4 4 4 4 4 3 4 4 4 4 4 4 4 4 4 4 6 5 5 5 5 5 6 7 8 7 5 3 6 7 7 7 8 7 7
5 5 5 4 4 4 4 4 4 4 4 4 4 4 4 4 4 5 5 5 5 5 6 6 6 6 7 6 7 6 5 3 5 6 8 8 8 7
5 5 5 5 5 4 4 4 4 4 5 4 5 4 4 4 5 5 5 5 5 6 7 6 6 6 6 6 8 8 7 7 5 6 6 6 7 8
5 5 5 5 5 4 4 5 5 5 5 5 5 5 5 5 5 5 5 6 6 7 7 7 6 6 6 7 7 8 10 10 7 7 5 4 8 9
Wind_Direction
226 220 233 233 241 246 245 254 266 273 264 215 232 212 226 229 177 218 223 187 197 209 214 217 220 223 225 226 227 227 227 229 231 234 237 238 239 242
236 242 240 234 236 240 242 246 255 267 276 274 240 244 251 247 182 224 222 175 195 206 215 220 224 225 226 227 229 229 231 233 233 234 236 237 240 242
225 225 229 243 239 237 231 237 242 248 258 266 257 226 233 266 234 232 226 222 202 195 209 220 225 227 226 226 229 231 233 234 234 234 235 236 239 242
224 226 228 224 226 243 241 239 240 248 256 264 264 242 230 239 239 245 239 229 232 185 196 212 220 223 224 225 227 230 232 233 231 231 232 233 236 239
228 228 230 228 226 228 235 239 238 238 247 256 255 247 243 237 237 238 241 246 250 198 191 204 211 216 218 221 222 226 230 232 234 234 235 235 238 242
230 232 230 227 225 230 233 239 248 254 248 253 253 247 242 238 248 247 245 227 247 252 221 202 193 203 213 216 218 222 224 228 232 235 239 240 242 244
225 226 225 220 233 243 254 241 241 249 247 247 249 254 253 252 252 257 266 265 252 257 255 233 208 213 203 207 212 216 221 226 230 234 239 242 245 246
226 223 211 198 197 205 243 298 301 264 264 267 262 264 273 270 277 274 275 272 266 250 267 266 258 254 247 239 156 179 204 220 229 234 237 241 245 248
224 217 220 175 188 199 180 185 208 261 277 276 278 282 283 283 282 270 273 283 293 306 283 277 274 273 275 160 133 157 184 209 223 230 236 242 245 248
208 198 197 189 207 194 190 177 193 169 206 235 278 300 317 324 295 280 285 269 260 259 277 275 278 275 280 266 145 163 179 197 212 226 238 242 248 252
116 91 120 129 67 87 146 159 140 77 84 78 51 18 22 16 346 310 296 282 282 280 320 283 284 285 269 244 165 165 174 186 197 212 227 238 253 254
121 100 76 72 73 84 151 148 137 8 15 82 93 71 340 15 357 315 309 299 295 298 5 295 293 295 279 254 258 199 189 187 204 216 222 231 256 268
115 102 82 84 82 75 66 56 41 10 32 30 41 31 30 18 2 355 339 322 313 315 349 317 304 303 293 294 296 298 296 286 250 236 226 235 237 255
83 78 84 92 90 82 71 53 44 16 30 20 18 13 3 2 9 12 13 358 339 328 335 328 309 309 302 297 300 301 302 301 299 295 290 241 236 237
83 83 86 96 101 93 78 69 74 61 49 28 13 4 359 5 4 6 4 345 307 329 351 332 311 305 293 294 302 306 303 299 296 298 298 292 284 273
106 108 109 101 91 83 89 79 55 36 15 15 14 17 8 5 357 350 344 340 334 347 2 336 318 308 299 302 300 304 307 307 311 312 308 297 290 284
104 102 93 90 84 77 71 60 47 44 35 26 26 23 13 10 10 3 349 337 336 338 345 343 323 302 295 300 301 308 314 313 315 318 304 298 294 294
100 90 84 76 67 58 52 52 45 33 25 25 21 15 10 2 4 2 357 345 340 340 339 341 333 316 295 284 307 308 309 311 313 308 300 300 301 303
94 85 78 70 63 58 50 45 41 34 21 21 20 12 4 357 356 358 357 347 343 340 340 340 336 330 321 318 326 328 320 316 312 310 308 306 303 307
77 76 71 64 56 50 45 39 35 34 27 21 19 12 5 358 355 353 356 350 339 335 337 345 349 342 329 322 317 318 306 313 318 315 313 308 306 303
75 72 64 59 53 47 38 32 31 32 27 17 21 12 4 359 358 353 352 350 333 339 341 347 350 315 303 308 308 319 330 308 296 300 308 308 310 308
68 67 62 54 49 43 39 35 34 32 23 18 16 6 359 355 353 348 347 343 343 343 337 336 334 323 321 322 320 322 325 323 297 259 259 278 305 309
62 59 57 54 48 43 38 32 32 30 23 14 6 357 352 351 346 345 344 341 340 338 334 334 335 330 330 328 326 324 324 322 318 314 302 233 234 249